Terminal Aerodrome Forecast
Issued by NWS

Home | Current Version | Previous Version | Text Only | Print | Product List | Glossary On
Versions: 1 2 3 4 5 6 7 8 9 10 11 12 13 14 15 16 17 18 19 20 21 22 23 24
647
FTUS43 KLSX 261917 AAA
TAFCPS
TAF AMD
KCPS 261917Z 2619/2718 VRB40G50KT 2SM +TSRA OVC030CB
     FM261945 VRB05KT 5SM -RA VCTS OVC040CB
      TEMPO 2620/2621 VRB20G35KT 3SM TSRA OVC030CB
     FM262300 15007KT P6SM SCT050
     FM271000 11010KT 4SM -RA BR VCTS OVC040CB
     FM271500 17012G18KT P6SM OVC045=

USA.gov is the U.S. government's official web portal to all federal, state and local government web resources and services.